This is the latest recevied weather packets stored in our database for station/object VE2JOS. If no packets are shown the sender has not sent any weather packets the latest 10 day(s).
| Time | Temp. | Humidity | Pressure | Rain* | Wind** | Luminosity | Snow |
|---|---|---|---|---|---|---|---|
| 1778185525 | 12.22° C | 53% | - | 0 mm | - | - | - |
| 1778183144 | 12.78° C | 50% | - | 0 mm | - | - | - |
| 1778181324 | 12.22° C | 50% | - | 0 mm | - | - | - |
| 1778179524 | 12.78° C | 49% | - | 0 mm | - | - | - |
| 1778178324 | 12.78° C | 50% | - | 0 mm | - | - | - |
| 1778175924 | 12.78° C | 49% | - | 0 mm | - | - | - |
| 1778171724 | 13.33° C | 50% | - | 0 mm | - | - | - |
| 1778171144 | 13.89° C | 50% | - | 0 mm | - | - | - |
| 1778170524 | 14.44° C | 48% | - | 0 mm | - | - | - |
| 1778162124 | 12.22° C | 57% | - | 0 mm | - | - | - |
| 1778161544 | 11.11° C | 59% | - | 0 mm | - | - | - |
| 1778160324 | 9.44° C | 63% | - | 0 mm | - | - | - |
| 1778159744 | 9.44° C | 65% | - | 0 mm | - | - | - |
| 1778158524 | 8.33° C | 66% | - | 0 mm | - | - | - |
| 1778154324 | 8.33° C | 82% | - | 0 mm | - | - | - |
| 1778153724 | 8.33° C | 84% | - | 0 mm | - | - | - |
| 1778147124 | 7.22° C | 90% | - | 0 mm | - | - | - |
| 1778145944 | 7.22° C | 90% | - | 0 mm | - | - | - |
| 1778138764 | 7.22° C | 90% | - | 0 mm | - | - | - |
| 1778130923 | 7.22° C | 87% | - | 0 mm | - | - | - |
| 1778129124 | 7.78° C | 86% | - | 0 mm | - | - | - |
| 1778126124 | 7.78° C | 87% | - | 0 mm | - | - | - |
| 1778125523 | 7.78° C | 86% | - | 0 mm | - | - | - |
| 1778122523 | 7.78° C | 86% | - | 0 mm | - | - | - |
| 1778121924 | 7.78° C | 86% | - | 0 mm | - | - | - |
* Rain latest hour (hover to see other rain measurements)
** Current wind speed in m/s (hover to see current wind gust speed)